[[{"header":{"parameterUnit":"m.s-1","parameterCategory":2,"la1":30.2991,"la2":30.254,"lo1":-89.0895,"lo2":-89.0444,"dy":0.0017,"dx":0.0017,"nx":28,"ny":28,"refTime":"2024-07-22T09:00:00:Z","depth":"0","parameterNumber":2,"parameterNumberName":"U-component_of_CURRENTS"},"data":[0,0,0,0,0,0,0,0,0,0,0,0,0,0,0,0,0,0,0,0,0,0,0,0,0,0,0,0,0,0,0,0,0,0,0,0,0,0,0,0,0,0,0,0,0,0,0,0,0,0,0,0,0,0,0,0,0,0,-0.3005,-0.3008,0,-0.3084,-0.3083,-0.3082,-0.3008,-0.3007,-0.3007,-0.3006,-0.2829,-0.2825,-0.2821,0,0,0,0,0,0,0,0,0,0,0,0,0,-0.2716,-0.272,-0.3005,-0.3008,-0.3011,-0.3084,-0.3083,-0.3082,-0.3008,-0.3007,-0.3006,-0.3006,-0.2831,-0.2826,-0.2821,0,0,0,0,0,0,0,0,0,0,0,0,0,-0.28,-0.2721,-0.3004,-0.3001,-0.3004,-0.3084,-0.3083,-0.3081,-0.3008,-0.3007,-0.3006,-0.3005,-0.2832,-0.2826,-0.282,-0.2805,0,0,-0.2802,-0.2799,0,0,0,0,0,0,0,0,-0.2795,-0.2807,-0.2999,-0.3002,-0.3005,-0.3057,-0.2918,-0.2985,-0.3009,-0.2981,-0.3006,-0.3005,-0.2898,-0.2887,-0.2873,-0.2797,-0.2789,-0.2801,-0.2798,-0.2795,-0.2793,0,0,0,0,0,0,0,-0.2789,-0.2803,-0.3011,-0.3003,-0.3007,-0.2973,-0.2981,-0.2929,-0.2921,-0.2983,-0.2984,-0.3032,-0.2895,-0.2879,-0.2868,-0.2786,-0.2802,-0.2796,-0.2793,-0.279,-0.2675,-0.2676,0,0,0,0,0,0,-0.2835,-0.2799,-0.3009,-0.3016,-0.2923,-0.2981,-0.2989,-0.3021,-0.2927,-0.2921,-0.3033,-0.3029,-0.289,-0.2875,-0.2861,-0.2805,-0.2795,-0.279,-0.2786,-0.2675,-0.2676,-0.2676,0,0,0,0,0,0,-0.2828,-0.2852,-0.3006,-0.2929,-0.2949,-0.299,-0.3024,-0.3024,-0.3027,-0.2973,-0.2956,-0.3043,-0.2888,-0.287,-0.2823,-0.2798,-0.2787,-0.2781,-0.2674,-0.2675,-0.2676,-0.2712,0,0,0,0,0,0,-0.2819,-0.2848,-0.2859,-0.2932,-0.2957,-0.3056,-0.3028,-0.3027,-0.307,-0.3064,-0.2976,-0.2957,-0.2886,-0.2833,-0.2817,-0.279,-0.2777,-0.2673,-0.2675,-0.2676,-0.271,-0.2714,-0.2717,0,0,0,0,0,-0.2807,-0.2827,-0.2858,-0.2884,-0.2978,-0.3059,-0.3064,-0.3073,-0.3073,-0.3069,-0.3016,-0.2961,-0.2828,-0.2829,-0.281,-0.278,-0.2673,-0.2674,-0.2676,-0.2708,-0.2713,-0.2717,0,0,0,0,0,0,-0.2688,-0.2827,-0.286,-0.2916,-0.2994,-0.3056,-0.3051,-0.3095,-0.3055,-0.3027,-0.297,-0.2947,-0.2895,-0.285,-0.2854,-0.2756,-0.2741,-0.2739,-0.2772,-0.2776,-0.2779,-0.2681,-0.2772,0,0,0,0,0,-0.2685,-0.2736,-0.2863,-0.2903,-0.2937,-0.3004,-0.3034,-0.306,-0.3066,-0.3048,-0.3012,-0.2949,-0.2886,-0.2844,-0.2786,-0.2737,-0.2668,-0.2709,-0.2712,-0.2715,-0.2626,-0.2555,-0.2542,-0.268,-0.268,-0.268,0,0,-0.2653,-0.2738,-0.2764,-0.2884,-0.2919,-0.2944,-0.3008,-0.3059,-0.3053,-0.3032,-0.2977,-0.2963,-0.2882,-0.2817,-0.2789,-0.2773,-0.2655,-0.2717,-0.272,-0.2626,-0.2555,-0.254,-0.2528,-0.2681,-0.2681,-0.2681,0,0,-0.2581,-0.2684,-0.2676,-0.2747,-0.2849,-0.2907,-0.294,-0.3023,-0.3018,-0.3015,-0.2985,-0.2949,-0.2889,-0.2805,-0.2756,-0.2746,-0.2686,-0.2769,-0.2684,-0.2621,-0.2607,-0.2594,-0.2543,-0.2525,-0.2759,-0.2759,-0.2759,0,-0.2515,-0.2558,-0.2684,-0.2692,-0.2746,-0.2892,-0.2889,-0.2912,-0.2972,-0.2949,-0.2988,-0.2883,-0.2848,-0.2718,-0.2719,-0.2739,-0.2713,-0.2677,-0.2621,-0.2606,-0.2591,-0.2542,-0.2521,-0.2761,-0.2761,-0.2761,-0.2761,0,-0.2434,-0.2475,-0.2479,-0.2544,-0.261,-0.2652,-0.2749,-0.2778,-0.2834,-0.2855,-0.2796,-0.2771,-0.2696,-0.2714,-0.27,-0.2592,-0.2614,-0.2647,-0.2601,-0.2578,-0.253,-0.2508,-0.2764,-0.2763,-0.2763,-0.2762,0,0,-0.226,-0.239,-0.2386,-0.2416,-0.2551,-0.2604,-0.2599,-0.2638,-0.2619,-0.2656,-0.2601,-0.253,-0.256,-0.2504,-0.2522,-0.2461,-0.239,-0.2512,-0.2508,-0.2443,-0.2263,-0.2174,-0.2141,-0.244,-0.2435,-0.2431,-0.229,0,-0.2144,-0.2147,-0.2243,-0.2257,-0.2288,-0.2423,-0.2414,-0.2464,-0.2516,-0.2506,-0.2475,-0.2438,-0.2472,-0.247,-0.2408,-0.241,-0.2323,-0.2423,-0.2304,-0.2298,-0.2206,-0.2108,-0.2005,-0.1859,-0.2267,-0.2263,-0.2261,0,-0.2026,-0.2062,-0.205,-0.2161,-0.2175,-0.2192,-0.2252,-0.2274,-0.2285,-0.231,-0.2271,-0.2301,-0.2214,-0.228,-0.2154,-0.2236,-0.2207,-0.2197,-0.2194,-0.2047,-0.2161,-0.1937,-0.1802,-0.1816,-0.2225,-0.2228,-0.2231,0,-0.1896,-0.1941,-0.1944,-0.1984,-0.2097,-0.2085,-0.2143,-0.2186,-0.2207,-0.2198,-0.2206,-0.2131,-0.2107,-0.2053,-0.2052,-0.2112,-0.1926,-0.202,-0.1876,-0.1874,-0.1711,-0.17,-0.1532,-0.1848,-0.1848,-0.1849,-0.1849,0,-0.1797,-0.1797,-0.1879,-0.1893,-0.1879,-0.1989,-0.198,-0.202,-0.2063,-0.2023,-0.21,-0.202,-0.205,-0.1988,-0.1984,-0.1841,-0.1863,-0.1773,-0.179,-0.1731,-0.1724,-0.1668,-0.1721,-0.1843,-0.1844,-0.1846,-0.1846,0,-0.1681,-0.1741,-0.1751,-0.1816,-0.1836,-0.1832,-0.1934,-0.1935,-0.1979,-0.1934,-0.193,-0.1931,-0.1818,-0.184,-0.1743,-0.1726,-0.1589,-0.157,-0.1503,-0.1509,-0.1386,-0.1446,-0.1217,-0.1187,-0.1369,-0.1365,-0.1362,0,-0.163,-0.162,-0.168,-0.1689,-0.1718,-0.1747,-0.1775,-0.1875,-0.1885,-0.1821,-0.1774,-0.1683,-0.15,-0.1377,-0.1379,-0.1309,-0.1387,-0.1191,-0.1236,-0.1267,-0.1349,-0.1426,-0.1426,-0.1079,-0.1074,-0.107,-0.1067,0,-0.1519,-0.1534,-0.1549,-0.1558,-0.1586,-0.161,-0.1646,-0.1618,-0.1659,-0.1576,-0.1337,-0.1163,-0.1075,-0.0908,-0.0928,-0.0929,-0.1164,-0.1097,-0.113,-0.1044,-0.1107,-0.1127,-0.1327,-0.1029,-0.1033,-0.1035,-0.1037,-0.1039,-0.1421,-0.1399,-0.1411,-0.1403,-0.1433,-0.1372,-0.1299,-0.1298,-0.1173,-0.0945,-0.0879,-0.0553,-0.0493,-0.0464,-0.055,-0.0703,-0.0804,-0.0722,-0.0778,-0.0844,-0.0815,-0.0914,-0.0644,-0.0645,-0.0647,-0.0648,-0.0649,0,-0.127,-0.1262,-0.1259,-0.1224,-0.1153,-0.1228,-0.1147,-0.1015,-0.0733,-0.055,-0.0267,0.006,0.0104,-0.0065,-0.0295,-0.0384,-0.048,-0.0468,-0.0567,-0.0574,-0.0632,-0.0622,-0.033,-0.033,-0.033,-0.0331,-0.0331,-0.0331,-0.1202,-0.1122,-0.1111,-0.0924,-0.0893,-0.0717,-0.0594,-0.0415,-0.0251,0.0162,0.0374,0.0491,0.0361,0.0078,-0.0237,-0.0315,-0.0399,-0.0379,-0.0467,-0.0553,-0.0584,-0.0613,-0.0613,-0.0325,-0.0325,-0.0371,-0.0372,-0.0372]},{"header":{"parameterUnit":"m.s-1","parameterCategory":2,"la1":30.2991,"la2":30.254,"lo1":-89.0895,"lo2":-89.0444,"dy":0.0017,"dx":0.0017,"nx":28,"ny":28,"refTime":"2024-07-22T09:00:00:Z","depth":"0","parameterNumber":3,"parameterNumberName":"V-component_of_CURRENTS"},"data":[0,0,0,0,0,0,0,0,0,0,0,0,0,0,0,0,0,0,0,0,0,0,0,0,0,0,0,0,0,0,0,0,0,0,0,0,0,0,0,0,0,0,0,0,0,0,0,0,0,0,0,0,0,0,0,0,0,0,0.0174,0.0177,0,0.0348,0.0349,0.035,0.0445,0.0447,0.0448,0.0449,0.0458,0.0457,0.0456,0,0,0,0,0,0,0,0,0,0,0,0,0,-0.0013,-0.0011,0.0174,0.0178,0.0181,0.0348,0.0349,0.035,0.0445,0.0447,0.0448,0.045,0.0458,0.0457,0.0455,0,0,0,0,0,0,0,0,0,0,0,0,0,0.0092,-0.0011,0.0174,0.0258,0.0268,0.0348,0.0349,0.0351,0.0445,0.0447,0.0449,0.0451,0.0459,0.0457,0.0455,0.0401,0,0,0.045,0.0449,0,0,0,0,0,0,0,0,0.0086,0.0097,0.0242,0.0253,0.0264,0.0389,0.0288,0.0364,0.0444,0.0364,0.0449,0.0452,0.0426,0.0427,0.0439,0.0401,0.0402,0.045,0.0449,0.0448,0.0448,0,0,0,0,0,0,0,0.0079,0.0091,0.023,0.0246,0.026,0.031,0.0325,0.0302,0.0367,0.0371,0.0381,0.0421,0.043,0.044,0.0439,0.0402,0.045,0.0448,0.0447,0.0447,0.0367,0.0366,0,0,0,0,0,0,0.0078,0.0084,0.0224,0.0236,0.0194,0.0312,0.0329,0.0336,0.0371,0.0384,0.0419,0.0425,0.0442,0.0441,0.044,0.0399,0.0448,0.0447,0.0446,0.0368,0.0367,0.0366,0,0,0,0,0,0,0.0073,0.0087,0.0218,0.0177,0.0199,0.0314,0.0321,0.0338,0.0373,0.0413,0.042,0.044,0.0444,0.0442,0.0416,0.0399,0.0446,0.0444,0.037,0.0368,0.0367,0.0302,0,0,0,0,0,0,0.0066,0.0083,0.0075,0.0175,0.0201,0.0265,0.0321,0.0341,0.0399,0.0409,0.0431,0.0434,0.0445,0.0418,0.0414,0.0398,0.0443,0.0371,0.0369,0.0367,0.0305,0.0298,0.0292,0,0,0,0,0,0.0058,0.0038,0.0072,0.009,0.0188,0.0266,0.0281,0.0363,0.0398,0.0401,0.041,0.0435,0.0404,0.0415,0.0411,0.0393,0.0372,0.037,0.0367,0.0308,0.03,0.0292,0,0,0,0,0,0,-0.0053,0.005,0.0089,0.01,0.0182,0.0287,0.0293,0.0362,0.0375,0.0365,0.0406,0.0406,0.0388,0.039,0.0402,0.0366,0.0397,0.0394,0.0354,0.0346,0.0339,0.03,0.0442,0,0,0,0,0,-0.0079,-0.0067,0.0048,0.0056,0.0083,0.0187,0.0226,0.0285,0.0328,0.034,0.0366,0.0371,0.0369,0.0358,0.0357,0.0315,0.0348,0.0307,0.03,0.0294,0.026,0.0288,0.0281,0.0358,0.0358,0.0358,0,0,-0.0113,-0.0057,-0.0047,0.0035,0.0087,0.0103,0.021,0.0257,0.0264,0.0328,0.031,0.0348,0.0356,0.0326,0.0317,0.0326,0.03,0.0291,0.0286,0.0254,0.0285,0.0277,0.027,0.0356,0.0357,0.0357,0,0,-0.0182,-0.014,-0.0155,-0.0104,-0.0016,0.0041,0.0058,0.0158,0.0187,0.0191,0.0241,0.0263,0.0256,0.0266,0.0267,0.0214,0.0273,0.0228,0.0146,0.0175,0.0168,0.0163,0.0241,0.0243,0.0213,0.0213,0.0213,0,-0.0234,-0.0227,-0.0145,-0.0149,-0.0116,0.0006,-0.0004,0.003,0.0113,0.0121,0.0168,0.0198,0.0222,0.019,0.0181,0.0198,0.0239,0.0178,0.0166,0.0161,0.0157,0.0238,0.0241,0.021,0.021,0.021,0.0211,0,-0.0302,-0.03,-0.0311,-0.0283,-0.025,-0.0233,-0.016,-0.014,-0.0079,-0.0021,-0.0005,0.0046,0.0068,0.0094,0.0114,0.0096,0.0148,0.0167,0.0186,0.0145,0.0234,0.0238,0.0205,0.0206,0.0207,0.0208,0,0,-0.0395,-0.0366,-0.0367,-0.0369,-0.0314,-0.0285,-0.0312,-0.0271,-0.0261,-0.0199,-0.0183,-0.0162,-0.0089,-0.0085,-0.0025,-0.0003,0.0036,0.0055,0.0058,0.0132,0.0135,0.0203,0.0216,0.0054,0.0053,0.0053,0.0227,0,-0.0466,-0.0503,-0.0469,-0.0503,-0.0511,-0.0442,-0.0458,-0.0417,-0.0358,-0.0321,-0.0261,-0.0216,-0.0172,-0.0127,-0.0115,0.0015,0.0035,-0.0011,0.0162,0.0167,0.0231,0.0217,0.0275,0.0436,0.0232,0.0232,0.0233,0,-0.053,-0.0542,-0.0594,-0.0585,-0.0584,-0.0594,-0.0572,-0.0569,-0.0516,-0.0467,-0.0431,-0.0341,-0.0294,-0.0236,-0.0105,-0.0133,-0.0033,0.0062,0.0072,0.0146,0.024,0.0434,0.0452,0.0496,0.024,0.024,0.0239,0,-0.0592,-0.0619,-0.066,-0.0659,-0.0646,-0.0664,-0.0655,-0.0613,-0.0583,-0.0543,-0.0462,-0.0434,-0.0324,-0.0261,-0.0057,-0.0081,0.0121,0.0122,0.0268,0.0278,0.0362,0.0379,0.0434,0.0174,0.0174,0.0173,0.0173,0,-0.0656,-0.0683,-0.069,-0.0707,-0.075,-0.0722,-0.0741,-0.0722,-0.0656,-0.0545,-0.0528,-0.0369,-0.0321,-0.017,-0.0073,0.0137,0.0111,0.0245,0.0309,0.0348,0.0361,0.0431,0.0437,0.018,0.0178,0.0177,0.0176,0,-0.0704,-0.0711,-0.0754,-0.0768,-0.0777,-0.0806,-0.0778,-0.0754,-0.0684,-0.0529,-0.0491,-0.0312,-0.0107,-0.0044,0.0135,0.0193,0.0406,0.0412,0.0476,0.0541,0.0666,0.0667,0.079,0.0879,0.0571,0.0573,0.0576,0,-0.0727,-0.0756,-0.08,-0.0825,-0.0834,-0.0862,-0.0849,-0.0795,-0.0672,-0.0398,-0.0248,-0.0068,0.0206,0.0426,0.0433,0.0536,0.0576,0.0687,0.0613,0.0669,0.0718,0.0711,0.0775,0.0738,0.0741,0.0743,0.0745,0,-0.0766,-0.0783,-0.0818,-0.0862,-0.0872,-0.0857,-0.0768,-0.0653,-0.0455,-0.0257,0.0186,0.0411,0.0589,0.0754,0.0756,0.081,0.0738,0.0745,0.0778,0.0813,0.0834,0.0955,0.0661,0.0769,0.0766,0.0765,0.0763,0.0763,-0.078,-0.0816,-0.0845,-0.0871,-0.0869,-0.0732,-0.0619,-0.0415,-0.0149,0.0321,0.0554,0.0971,0.1089,0.1096,0.1048,0.0968,0.0937,0.1025,0.1021,0.1008,0.1069,0.0837,0.1019,0.1018,0.1017,0.1016,0.1016,0,-0.0739,-0.0782,-0.0836,-0.0798,-0.07,-0.0718,-0.0461,-0.0241,0.0194,0.0576,0.1019,0.1486,0.1528,0.1443,0.1291,0.1269,0.1227,0.1282,0.1265,0.1319,0.1105,0.1083,0.1316,0.1316,0.1316,0.1316,0.1316,0.1316,-0.0721,-0.073,-0.0747,-0.0593,-0.0538,-0.0291,-0.0089,0.0226,0.0554,0.1156,0.1542,0.1832,0.1922,0.1661,0.1485,0.1456,0.1517,0.1491,0.153,0.1335,0.1309,0.1285,0.1264,0.1531,0.1532,0.177,0.1771,0.1773]}],[{"header":{"parameterUnit":"m.s-1","parameterCategory":2,"la1":30.2991,"la2":30.254,"lo1":-89.0895,"lo2":-89.0444,"dy":0.0017,"dx":0.0017,"nx":28,"ny":28,"refTime":"2024-07-22T09:00:00:Z","depth":"2","parameterNumber":2,"parameterNumberName":"U-component_of_CURRENTS"},"data":[0,0,0,0,0,0,0,0,0,0,0,0,0,0,0,0,0,0,0,0,0,0,0,0,0,0,0,0,0,0,0,0,0,0,0,0,0,0,0,0,0,0,0,0,0,0,0,0,0,0,0,0,0,0,0,0,0,0,-0.1867,-0.1866,0,-0.1825,-0.1825,-0.1825,-0.1822,-0.1822,-0.1822,-0.1823,-0.1891,-0.1893,-0.1894,0,0,0,0,0,0,0,0,0,0,0,0,0,-0.183,-0.1832,-0.1867,-0.1866,-0.1865,-0.1825,-0.1825,-0.1825,-0.1822,-0.1822,-0.1823,-0.1823,-0.189,-0.1892,-0.1894,0,0,0,0,0,0,0,0,0,0,0,0,0,-0.1825,-0.1832,-0.1867,-0.1858,-0.1856,-0.1825,-0.1825,-0.1824,-0.1822,-0.1822,-0.1823,-0.1823,-0.189,-0.1892,-0.1894,-0.19,0,0,-0.1902,-0.1903,0,0,0,0,0,0,0,0,-0.1826,-0.1827,-0.186,-0.1858,-0.1857,-0.1827,-0.1837,-0.1855,-0.1822,-0.1837,-0.1823,-0.1823,-0.1878,-0.1882,-0.1874,-0.1904,-0.1907,-0.1902,-0.1903,-0.1904,-0.1905,0,0,0,0,0,0,0,-0.1826,-0.1828,-0.1853,-0.1859,-0.1857,-0.1816,-0.1818,-0.1839,-0.186,-0.1836,-0.1835,-0.1827,-0.1879,-0.1872,-0.1876,-0.1908,-0.1902,-0.1904,-0.1905,-0.1906,-0.1964,-0.1964,0,0,0,0,0,0,-0.1833,-0.1829,-0.1854,-0.1851,-0.184,-0.1817,-0.1818,-0.1838,-0.1857,-0.1859,-0.1827,-0.1827,-0.1868,-0.1873,-0.1879,-0.1888,-0.1904,-0.1906,-0.1908,-0.1964,-0.1964,-0.1964,0,0,0,0,0,0,-0.1833,-0.1837,-0.1855,-0.1835,-0.1835,-0.1818,-0.184,-0.1837,-0.1833,-0.1848,-0.1853,-0.1825,-0.1868,-0.1875,-0.1907,-0.1891,-0.1907,-0.191,-0.1963,-0.1964,-0.1964,-0.1908,0,0,0,0,0,0,-0.1833,-0.1838,-0.1847,-0.1837,-0.1836,-0.1841,-0.1839,-0.1836,-0.1826,-0.1826,-0.1849,-0.1855,-0.1869,-0.1903,-0.1909,-0.1895,-0.1911,-0.1963,-0.1963,-0.1964,-0.191,-0.1906,-0.1903,0,0,0,0,0,-0.1832,-0.1842,-0.1849,-0.1851,-0.1854,-0.1841,-0.1837,-0.1826,-0.1825,-0.1824,-0.1845,-0.1854,-0.1909,-0.1906,-0.1913,-0.1898,-0.1963,-0.1963,-0.1964,-0.1911,-0.1907,-0.1903,0,0,0,0,0,0,-0.1831,-0.1843,-0.185,-0.1864,-0.1855,-0.1839,-0.1833,-0.1826,-0.1836,-0.1848,-0.1862,-0.187,-0.1881,-0.1909,-0.1905,-0.1917,-0.1935,-0.1937,-0.1893,-0.1889,-0.1886,-0.1885,-0.1913,0,0,0,0,0,-0.1836,-0.1847,-0.185,-0.1857,-0.1861,-0.1849,-0.1839,-0.1838,-0.1844,-0.1848,-0.1859,-0.188,-0.1886,-0.1905,-0.1917,-0.1937,-0.1938,-0.1932,-0.1929,-0.1926,-0.1931,-0.1919,-0.1915,-0.1965,-0.1965,-0.1965,0,0,-0.1835,-0.1841,-0.1848,-0.1856,-0.1854,-0.1854,-0.1846,-0.1843,-0.1836,-0.1858,-0.1862,-0.1867,-0.1887,-0.1895,-0.1904,-0.192,-0.1909,-0.1926,-0.1923,-0.193,-0.1919,-0.1914,-0.1909,-0.1965,-0.1965,-0.1965,0,0,-0.1833,-0.1853,-0.1862,-0.1863,-0.1863,-0.1856,-0.1857,-0.1852,-0.1847,-0.1856,-0.1855,-0.1853,-0.1885,-0.1876,-0.1881,-0.1874,-0.1883,-0.1884,-0.1877,-0.1865,-0.186,-0.1857,-0.183,-0.1825,-0.1894,-0.1893,-0.1893,0,-0.1834,-0.1849,-0.1857,-0.1866,-0.1863,-0.186,-0.1865,-0.1856,-0.1856,-0.1857,-0.1861,-0.1868,-0.1868,-0.1863,-0.185,-0.1862,-0.1863,-0.1884,-0.1858,-0.1855,-0.1852,-0.1826,-0.182,-0.1891,-0.1891,-0.1891,-0.1892,0,-0.1835,-0.1851,-0.1855,-0.1871,-0.1869,-0.1871,-0.187,-0.1868,-0.1864,-0.1857,-0.1853,-0.1848,-0.1855,-0.1841,-0.1842,-0.1818,-0.1827,-0.1842,-0.1861,-0.1843,-0.1818,-0.1812,-0.1887,-0.1888,-0.1889,-0.1889,0,0,-0.1811,-0.1853,-0.1848,-0.1862,-0.1875,-0.1871,-0.1874,-0.1867,-0.187,-0.1863,-0.1857,-0.1833,-0.1831,-0.1836,-0.1825,-0.1808,-0.1755,-0.1819,-0.1819,-0.1781,-0.1725,-0.1626,-0.1611,-0.1774,-0.1773,-0.1772,-0.1708,0,-0.1803,-0.1823,-0.1843,-0.185,-0.1861,-0.1875,-0.1875,-0.1876,-0.1874,-0.187,-0.1852,-0.1847,-0.183,-0.1829,-0.1804,-0.1777,-0.1745,-0.1771,-0.1761,-0.1761,-0.1664,-0.1603,-0.1486,-0.1411,-0.1704,-0.1703,-0.1702,0,-0.1775,-0.1795,-0.1811,-0.1849,-0.1857,-0.186,-0.1867,-0.1872,-0.1875,-0.1882,-0.188,-0.1875,-0.184,-0.1828,-0.1771,-0.1797,-0.1752,-0.1725,-0.1722,-0.1649,-0.1652,-0.1483,-0.1391,-0.1694,-0.1695,-0.1695,-0.1696,0,-0.1717,-0.176,-0.177,-0.1782,-0.1828,-0.1835,-0.1852,-0.1869,-0.1875,-0.1886,-0.1892,-0.1878,-0.1851,-0.1821,-0.1746,-0.1771,-0.1674,-0.1706,-0.157,-0.1563,-0.147,-0.1455,-0.1647,-0.1648,-0.1648,-0.1648,-0.1648,0,-0.1679,-0.1683,-0.1747,-0.175,-0.1761,-0.1809,-0.1817,-0.1841,-0.1869,-0.1863,-0.1889,-0.1869,-0.1847,-0.179,-0.1747,-0.1623,-0.1672,-0.1545,-0.1531,-0.1445,-0.1429,-0.1695,-0.1701,-0.1645,-0.1646,-0.1646,-0.1647,0,-0.1598,-0.1646,-0.1658,-0.1715,-0.1732,-0.1733,-0.179,-0.1795,-0.1843,-0.1834,-0.1838,-0.1844,-0.1766,-0.1719,-0.1642,-0.1592,-0.1512,-0.1451,-0.1336,-0.1308,-0.1416,-0.142,-0.1316,-0.1312,-0.1308,-0.1305,-0.1303,0,-0.1557,-0.1557,-0.161,-0.1619,-0.1641,-0.1666,-0.168,-0.1754,-0.1756,-0.18,-0.1773,-0.1729,-0.1669,-0.1529,-0.1402,-0.129,-0.137,-0.1136,-0.1148,-0.138,-0.1378,-0.1388,-0.1398,-0.1003,-0.0998,-0.0995,-0.0991,0,-0.1471,-0.1489,-0.1504,-0.152,-0.1537,-0.1553,-0.1579,-0.1584,-0.1651,-0.1662,-0.1656,-0.1637,-0.1488,-0.131,-0.1145,-0.1069,-0.1154,-0.105,-0.1313,-0.1101,-0.1078,-0.1079,-0.11,-0.0957,-0.096,-0.0963,-0.0965,-0.0966,-0.1393,-0.138,-0.1401,-0.1402,-0.1422,-0.1408,-0.1381,-0.1416,-0.1414,-0.1388,-0.1468,-0.1383,-0.1349,-0.1018,-0.0909,-0.0774,-0.0867,-0.0844,-0.0859,-0.0878,-0.0848,-0.082,-0.0644,-0.0646,-0.0647,-0.0648,-0.065,0,-0.129,-0.1287,-0.1284,-0.1275,-0.1236,-0.1288,-0.128,-0.1233,-0.1183,-0.1183,-0.1168,-0.1026,-0.0885,-0.082,-0.056,-0.0508,-0.0529,-0.0482,-0.054,-0.0572,-0.0601,-0.0563,-0.0281,-0.028,-0.0279,-0.0278,0,0,-0.1238,-0.1196,-0.1191,-0.1085,-0.1073,-0.0976,-0.0946,-0.0911,-0.0883,-0.0814,-0.0761,-0.0825,-0.0825,-0.0593,-0.0508,-0.0358,-0.0467,-0.0313,-0.0604,-0.0706,-0.0736,-0.0793,-0.0766,0,0,0,0,0]},{"header":{"parameterUnit":"m.s-1","parameterCategory":2,"la1":30.2991,"la2":30.254,"lo1":-89.0895,"lo2":-89.0444,"dy":0.0017,"dx":0.0017,"nx":28,"ny":28,"refTime":"2024-07-22T09:00:00:Z","depth":"2","parameterNumber":3,"parameterNumberName":"V-component_of_CURRENTS"},"data":[0,0,0,0,0,0,0,0,0,0,0,0,0,0,0,0,0,0,0,0,0,0,0,0,0,0,0,0,0,0,0,0,0,0,0,0,0,0,0,0,0,0,0,0,0,0,0,0,0,0,0,0,0,0,0,0,0,0,-0.0461,-0.0461,0,-0.0456,-0.0456,-0.0456,-0.0436,-0.0436,-0.0436,-0.0436,-0.037,-0.0368,-0.0366,0,0,0,0,0,0,0,0,0,0,0,0,0,-0.0437,-0.0438,-0.0461,-0.0461,-0.0461,-0.0457,-0.0456,-0.0456,-0.0436,-0.0436,-0.0436,-0.0436,-0.037,-0.0368,-0.0366,0,0,0,0,0,0,0,0,0,0,0,0,0,-0.0438,-0.0438,-0.0461,-0.0454,-0.0454,-0.0457,-0.0456,-0.0455,-0.0436,-0.0436,-0.0436,-0.0436,-0.0371,-0.0369,-0.0366,-0.0353,0,0,-0.0358,-0.0357,0,0,0,0,0,0,0,0,-0.0438,-0.0438,-0.0455,-0.0455,-0.0454,-0.045,-0.0424,-0.0419,-0.0436,-0.0439,-0.0436,-0.0436,-0.0394,-0.0389,-0.0384,-0.035,-0.0347,-0.0358,-0.0357,-0.0355,-0.0355,0,0,0,0,0,0,0,-0.0438,-0.0438,-0.0455,-0.0455,-0.0455,-0.0447,-0.0446,-0.0423,-0.0413,-0.0439,-0.0438,-0.0444,-0.0393,-0.0386,-0.0382,-0.0346,-0.0358,-0.0356,-0.0354,-0.0353,-0.0265,-0.0264,0,0,0,0,0,0,-0.0448,-0.0438,-0.0455,-0.0455,-0.045,-0.0448,-0.0447,-0.0448,-0.0414,-0.0411,-0.0444,-0.0443,-0.0391,-0.0385,-0.038,-0.0339,-0.0355,-0.0353,-0.0352,-0.0265,-0.0264,-0.0264,0,0,0,0,0,0,-0.0447,-0.0449,-0.0455,-0.045,-0.0451,-0.0449,-0.045,-0.0449,-0.0448,-0.042,-0.0414,-0.0447,-0.039,-0.0383,-0.035,-0.0337,-0.0352,-0.035,-0.0266,-0.0265,-0.0264,-0.0273,0,0,0,0,0,0,-0.0446,-0.0448,-0.0455,-0.0451,-0.0452,-0.0462,-0.0451,-0.0449,-0.0454,-0.0452,-0.042,-0.0414,-0.039,-0.0354,-0.0348,-0.0334,-0.0348,-0.0267,-0.0266,-0.0264,-0.0274,-0.0272,-0.0271,0,0,0,0,0,-0.0445,-0.0457,-0.0455,-0.0458,-0.046,-0.0463,-0.0462,-0.0457,-0.0454,-0.0455,-0.0424,-0.0415,-0.0339,-0.0351,-0.0344,-0.033,-0.0268,-0.0266,-0.0264,-0.0274,-0.0272,-0.0271,0,0,0,0,0,0,-0.0455,-0.0456,-0.0454,-0.0467,-0.0468,-0.0461,-0.0464,-0.0463,-0.0441,-0.0434,-0.0406,-0.0396,-0.0365,-0.0345,-0.0359,-0.0298,-0.0302,-0.0299,-0.0312,-0.031,-0.0308,-0.031,-0.0346,0,0,0,0,0,-0.046,-0.0467,-0.0466,-0.0478,-0.0476,-0.0471,-0.0473,-0.0469,-0.0451,-0.0443,-0.042,-0.0386,-0.0351,-0.033,-0.0303,-0.0269,-0.0246,-0.0254,-0.0252,-0.0251,-0.0247,-0.0203,-0.0197,-0.0257,-0.0257,-0.0257,0,0,-0.047,-0.0471,-0.0477,-0.048,-0.0475,-0.0471,-0.047,-0.0472,-0.0462,-0.0437,-0.0411,-0.0387,-0.0343,-0.0305,-0.0288,-0.0285,-0.0221,-0.0249,-0.0248,-0.0244,-0.02,-0.0194,-0.0189,-0.0256,-0.0256,-0.0257,0,0,-0.0487,-0.0488,-0.0494,-0.049,-0.0489,-0.0481,-0.0484,-0.0476,-0.0463,-0.0439,-0.0413,-0.0376,-0.0335,-0.0293,-0.0267,-0.024,-0.0222,-0.0237,-0.0222,-0.0179,-0.0174,-0.017,-0.0132,-0.0124,-0.0227,-0.0227,-0.0227,0,-0.0498,-0.0506,-0.0498,-0.0496,-0.0495,-0.0485,-0.0486,-0.0467,-0.0449,-0.0431,-0.0431,-0.0355,-0.0323,-0.0261,-0.0247,-0.0236,-0.0215,-0.0234,-0.0178,-0.0173,-0.0168,-0.0131,-0.0122,-0.0228,-0.0228,-0.0228,-0.0228,0,-0.0513,-0.0517,-0.0519,-0.0508,-0.0502,-0.0505,-0.0479,-0.0464,-0.0449,-0.0428,-0.0381,-0.0335,-0.0289,-0.027,-0.0247,-0.0192,-0.019,-0.0191,-0.0186,-0.0163,-0.0125,-0.0115,-0.0228,-0.0228,-0.0228,-0.0228,0,0,-0.0548,-0.0533,-0.0535,-0.0534,-0.0511,-0.0512,-0.0477,-0.045,-0.0431,-0.0395,-0.0366,-0.0294,-0.0278,-0.0246,-0.0215,-0.0169,-0.0112,-0.0164,-0.0162,-0.0134,-0.0023,-0.0003,0.0009,-0.0108,-0.0107,-0.0106,-0.0012,0,-0.0566,-0.0574,-0.0553,-0.0555,-0.0558,-0.0522,-0.0496,-0.0461,-0.0427,-0.0393,-0.0328,-0.0293,-0.0265,-0.0249,-0.0194,-0.014,-0.0087,-0.0138,-0.0044,-0.0041,-0.0032,0.0021,-0.0011,0.0072,-0.0002,-0.0001,0.0001,0,-0.0591,-0.0595,-0.0604,-0.0585,-0.058,-0.0573,-0.0534,-0.0508,-0.0437,-0.0409,-0.035,-0.031,-0.0229,-0.0222,-0.0096,-0.0134,-0.0076,-0.003,-0.0026,0.0004,-0.0003,0.0038,0.0092,0.0017,0.0016,0.0014,0.0013,0,-0.0638,-0.063,-0.0644,-0.0639,-0.0611,-0.0601,-0.0582,-0.052,-0.0494,-0.0426,-0.0399,-0.0306,-0.026,-0.0175,-0.0071,-0.0086,0.0058,0.0049,0.0128,0.0129,0.0128,0.0127,0.0142,0.0142,0.0142,0.0142,0.0141,0,-0.0675,-0.0685,-0.0673,-0.0683,-0.0694,-0.0651,-0.0641,-0.0602,-0.0543,-0.0515,-0.042,-0.0374,-0.0247,-0.0149,-0.0068,0.0067,0.0067,0.0147,0.0164,0.0124,0.0122,0.009,0.0082,0.0145,0.0144,0.0144,0.0143,0,-0.0724,-0.0717,-0.0735,-0.0722,-0.0721,-0.0731,-0.0697,-0.0681,-0.0614,-0.0575,-0.0555,-0.0414,-0.0277,-0.0144,0.0005,0.0079,0.0193,0.0238,0.0184,0.0193,0.0234,0.0225,0.0341,0.0342,0.0344,0.0345,0.0346,0,-0.0746,-0.0764,-0.0779,-0.0797,-0.0797,-0.08,-0.0798,-0.0737,-0.0716,-0.0601,-0.0585,-0.043,-0.0315,-0.0069,0.0088,0.0256,0.0247,0.0315,0.0293,0.0255,0.0259,0.0247,0.0237,0.0287,0.0287,0.0287,0.0288,0,-0.0788,-0.0798,-0.0816,-0.086,-0.0877,-0.0882,-0.0873,-0.0862,-0.0785,-0.0732,-0.0628,-0.0523,-0.0261,-0.006,0.0173,0.0258,0.0285,0.0328,0.0319,0.0237,0.0211,0.0212,0.0202,0.0291,0.0291,0.029,0.029,0.029,-0.0816,-0.0847,-0.0877,-0.0917,-0.0937,-0.0946,-0.0943,-0.0912,-0.0871,-0.0751,-0.0679,-0.0479,-0.0295,0.007,0.0209,0.0359,0.0352,0.0371,0.0367,0.0364,0.0337,0.0314,0.0408,0.0409,0.0409,0.0409,0.0409,0,-0.0854,-0.0884,-0.0926,-0.0968,-0.0995,-0.0993,-0.0976,-0.0944,-0.0892,-0.0745,-0.0635,-0.0413,-0.0172,0.0052,0.0292,0.0406,0.0386,0.0418,0.036,0.0356,0.0353,0.0323,0.0392,0.0393,0.0393,0.0394,0,0,-0.0875,-0.0928,-0.0953,-0.1008,-0.1033,-0.1042,-0.1028,-0.0963,-0.0846,-0.0684,-0.0517,-0.0354,-0.0113,0.0038,0.0173,0.0308,0.0303,0.0316,0.0313,0.0223,0.0219,0.0306,0.0253,0,0,0,0,0]}],[{"header":{"parameterUnit":"m.s-1","parameterCategory":2,"la1":30.2991,"la2":30.254,"lo1":-89.0895,"lo2":-89.0444,"dy":0.0017,"dx":0.0017,"nx":28,"ny":28,"refTime":"2024-07-22T09:00:00:Z","depth":"4","parameterNumber":2,"parameterNumberName":"U-component_of_CURRENTS"},"data":[0,0,0,0,0,0,0,0,0,0,0,0,0,0,0,0,0,0,0,0,0,0,0,0,0,0,0,0,0,0,0,0,0,0,0,0,0,0,0,0,0,0,0,0,0,0,0,0,0,0,0,0,0,0,0,0,0,0,-0.1239,-0.1239,0,-0.1277,-0.1278,-0.1278,-0.1308,-0.1308,-0.1309,-0.1309,-0.1345,-0.1345,-0.1346,0,0,0,0,0,0,0,0,0,0,0,0,0,-0.1195,-0.1196,-0.1239,-0.1239,-0.124,-0.1277,-0.1278,-0.1278,-0.1308,-0.1308,-0.1309,-0.1309,-0.1344,-0.1345,-0.1346,0,0,0,0,0,0,0,0,0,0,0,0,0,-0.122,-0.1196,-0.1238,-0.1261,-0.1263,-0.1277,-0.1278,-0.1278,-0.1308,-0.1308,-0.1309,-0.131,-0.1344,-0.1345,-0.1346,-0.1337,0,0,-0.1348,-0.1349,0,0,0,0,0,0,0,0,-0.1219,-0.1222,-0.1257,-0.1259,-0.1262,-0.129,-0.1276,-0.1298,-0.1307,-0.1289,-0.1309,-0.131,-0.1327,-0.1329,-0.1332,-0.1339,-0.134,-0.1348,-0.1349,-0.1349,-0.1349,0,0,0,0,0,0,0,-0.1217,-0.122,-0.1252,-0.1257,-0.1261,-0.127,-0.1274,-0.128,-0.1302,-0.129,-0.1293,-0.13,-0.1328,-0.1331,-0.1333,-0.1341,-0.1348,-0.1349,-0.1349,-0.135,-0.1362,-0.1362,0,0,0,0,0,0,-0.1215,-0.1218,-0.1251,-0.1253,-0.1244,-0.1271,-0.1275,-0.1279,-0.1302,-0.1307,-0.13,-0.1301,-0.133,-0.1332,-0.1335,-0.1371,-0.1349,-0.135,-0.135,-0.1362,-0.1362,-0.1362,0,0,0,0,0,0,-0.1214,-0.1217,-0.1249,-0.1239,-0.1244,-0.1271,-0.1275,-0.1279,-0.1308,-0.1309,-0.1314,-0.1327,-0.133,-0.1334,-0.1357,-0.1371,-0.135,-0.1351,-0.1362,-0.1362,-0.1362,-0.1414,0,0,0,0,0,0,-0.1212,-0.1216,-0.1231,-0.1238,-0.1244,-0.127,-0.1274,-0.128,-0.1311,-0.1314,-0.1334,-0.1336,-0.1331,-0.1356,-0.1358,-0.1371,-0.1352,-0.1363,-0.1362,-0.1362,-0.1413,-0.1416,-0.1418,0,0,0,0,0,-0.121,-0.1227,-0.1231,-0.1236,-0.1259,-0.1271,-0.1275,-0.1295,-0.1312,-0.1324,-0.1339,-0.1337,-0.1354,-0.1357,-0.1359,-0.1373,-0.1363,-0.1362,-0.1362,-0.1411,-0.1415,-0.1418,0,0,0,0,0,0,-0.1222,-0.1232,-0.1237,-0.1258,-0.1269,-0.1277,-0.1299,-0.131,-0.1332,-0.1345,-0.1345,-0.1349,-0.1368,-0.1361,-0.1363,-0.1371,-0.1354,-0.1354,-0.1391,-0.1394,-0.1397,-0.14,-0.1352,0,0,0,0,0,-0.1229,-0.1242,-0.125,-0.1269,-0.1277,-0.1292,-0.1307,-0.1318,-0.1333,-0.1345,-0.1354,-0.136,-0.1363,-0.1374,-0.137,-0.1387,-0.1368,-0.1391,-0.1394,-0.1397,-0.1398,-0.1387,-0.1389,-0.1361,-0.1361,-0.1361,0,0,-0.1241,-0.1247,-0.1258,-0.1272,-0.1286,-0.1301,-0.1303,-0.1331,-0.1347,-0.1345,-0.1376,-0.1374,-0.1367,-0.1379,-0.1387,-0.1382,-0.1392,-0.1396,-0.1399,-0.1399,-0.1387,-0.139,-0.1392,-0.1361,-0.1361,-0.1361,0,0,-0.1265,-0.1276,-0.1295,-0.1304,-0.1326,-0.1328,-0.1341,-0.1358,-0.1372,-0.1395,-0.1392,-0.1402,-0.1412,-0.1406,-0.1405,-0.1421,-0.1405,-0.1419,-0.1447,-0.1436,-0.1439,-0.1441,-0.1415,-0.1414,-0.1426,-0.1426,-0.1426,0,-0.1285,-0.1299,-0.1303,-0.1321,-0.1334,-0.1343,-0.1364,-0.1375,-0.1397,-0.1409,-0.1412,-0.1426,-0.1422,-0.1434,-0.1436,-0.143,-0.1417,-0.1441,-0.1442,-0.1444,-0.1445,-0.1418,-0.1416,-0.1428,-0.1428,-0.1428,-0.1427,0,-0.1308,-0.1331,-0.1345,-0.1363,-0.1377,-0.1397,-0.1406,-0.1425,-0.1442,-0.145,-0.1472,-0.1465,-0.1472,-0.147,-0.1462,-0.1469,-0.1453,-0.1446,-0.1439,-0.1452,-0.1421,-0.1419,-0.1432,-0.1431,-0.143,-0.1429,0,0,-0.1312,-0.1356,-0.136,-0.1376,-0.14,-0.1409,-0.1439,-0.1459,-0.1483,-0.1498,-0.152,-0.1523,-0.1523,-0.1519,-0.1509,-0.1503,-0.1496,-0.1485,-0.1483,-0.1468,-0.1465,-0.1351,-0.1337,-0.1498,-0.1498,-0.1498,-0.1438,0,-0.1328,-0.1368,-0.1385,-0.1419,-0.1435,-0.1454,-0.1478,-0.15,-0.1516,-0.1535,-0.1537,-0.155,-0.154,-0.1547,-0.1541,-0.1507,-0.1494,-0.1512,-0.1446,-0.1443,-0.1349,-0.1332,-0.1498,-0.1436,-0.1435,-0.1435,-0.1435,0,-0.1325,-0.1355,-0.1397,-0.1441,-0.1452,-0.1477,-0.1511,-0.1534,-0.1562,-0.1578,-0.1597,-0.1594,-0.1591,-0.1575,-0.1537,-0.1553,-0.1512,-0.1483,-0.148,-0.1354,-0.1325,-0.142,-0.143,-0.143,-0.1431,-0.1431,-0.1431,0,-0.129,-0.1351,-0.1385,-0.14,-0.1456,-0.1485,-0.1513,-0.155,-0.1568,-0.1602,-0.1614,-0.1621,-0.1606,-0.1582,-0.1518,-0.1535,-0.1456,-0.1471,-0.1328,-0.132,-0.1422,-0.142,-0.1435,-0.1435,-0.1435,-0.1435,-0.1435,0,-0.1268,-0.1295,-0.1378,-0.1393,-0.1432,-0.1478,-0.1514,-0.1549,-0.1589,-0.1587,-0.163,-0.1613,-0.1607,-0.1559,-0.152,-0.1398,-0.1455,-0.132,-0.1293,-0.1442,-0.1444,-0.142,-0.1419,-0.1433,-0.1433,-0.1434,-0.1434,0,-0.1205,-0.1266,-0.1305,-0.1387,-0.1413,-0.1436,-0.1504,-0.152,-0.1579,-0.1574,-0.1583,-0.1597,-0.1525,-0.1493,-0.1423,-0.1369,-0.129,-0.1231,-0.1373,-0.1358,-0.1166,-0.1169,-0.1083,-0.1078,-0.1074,-0.1071,-0.1068,0,-0.1171,-0.119,-0.1283,-0.1307,-0.1346,-0.1395,-0.1419,-0.1496,-0.1496,-0.1536,-0.1507,-0.1477,-0.1456,-0.1273,-0.1264,-0.1168,-0.1147,-0.1118,-0.1162,-0.1145,-0.1129,-0.1138,-0.1145,-0.1062,-0.1061,-0.106,-0.1059,0,-0.1103,-0.115,-0.1186,-0.1232,-0.127,-0.1295,-0.1331,-0.1327,-0.1381,-0.1455,-0.1387,-0.1342,-0.1243,-0.1179,-0.1093,-0.1037,-0.1154,-0.1077,-0.1086,-0.1128,-0.1119,-0.1109,-0.1121,-0.1045,-0.1047,-0.1049,-0.1049,0,-0.105,-0.1057,-0.1111,-0.1133,-0.1177,-0.1162,-0.1205,-0.1193,-0.121,-0.1263,-0.1228,-0.1202,-0.1216,-0.1106,-0.1036,-0.0958,-0.0952,-0.0946,-0.0962,-0.0977,-0.0966,-0.0942,-0.0776,0,0,0,0,0,-0.0989,-0.0984,-0.1003,-0.1016,-0.105,-0.1064,-0.112,-0.1161,-0.1219,-0.1134,-0.118,-0.1087,-0.0992,-0.0991,-0.088,-0.0966,-0.0945,-0.0836,-0.0946,-0.097,-0.0986,-0.0981,0,0,0,0,0,0,-0.0947,-0.0968,-0.0966,-0.0901,-0.0882,-0.0895,-0.0925,-0.0974,-0.0935,-0.1008,-0.0953,-0.1019,-0.0929,-0.1011,-0.0852,-0.0845,-0.0894,-0.0833,-0.083,-0.0961,-0.0976,-0.0988,-0.0988,0,0,0,0,0]},{"header":{"parameterUnit":"m.s-1","parameterCategory":2,"la1":30.2991,"la2":30.254,"lo1":-89.0895,"lo2":-89.0444,"dy":0.0017,"dx":0.0017,"nx":28,"ny":28,"refTime":"2024-07-22T09:00:00:Z","depth":"4","parameterNumber":3,"parameterNumberName":"V-component_of_CURRENTS"},"data":[0,0,0,0,0,0,0,0,0,0,0,0,0,0,0,0,0,0,0,0,0,0,0,0,0,0,0,0,0,0,0,0,0,0,0,0,0,0,0,0,0,0,0,0,0,0,0,0,0,0,0,0,0,0,0,0,0,0,-0.0365,-0.0365,0,-0.0356,-0.0356,-0.0355,-0.0343,-0.0343,-0.0343,-0.0343,-0.0318,-0.0318,-0.0317,0,0,0,0,0,0,0,0,0,0,0,0,0,-0.0336,-0.0337,-0.0365,-0.0365,-0.0365,-0.0356,-0.0356,-0.0355,-0.0343,-0.0343,-0.0343,-0.0343,-0.0319,-0.0318,-0.0317,0,0,0,0,0,0,0,0,0,0,0,0,0,-0.0337,-0.0337,-0.0365,-0.036,-0.036,-0.0356,-0.0356,-0.0355,-0.0343,-0.0343,-0.0343,-0.0343,-0.0319,-0.0318,-0.0317,-0.0307,0,0,-0.0313,-0.0313,0,0,0,0,0,0,0,0,-0.0337,-0.0338,-0.0361,-0.0361,-0.036,-0.0354,-0.0337,-0.034,-0.0343,-0.0346,-0.0343,-0.0343,-0.0331,-0.0329,-0.0322,-0.0306,-0.0305,-0.0313,-0.0313,-0.0312,-0.0312,0,0,0,0,0,0,0,-0.0337,-0.0338,-0.0358,-0.0361,-0.0361,-0.0347,-0.0347,-0.0337,-0.0335,-0.0346,-0.0346,-0.035,-0.033,-0.0323,-0.0322,-0.0305,-0.0313,-0.0312,-0.0312,-0.0311,-0.0286,-0.0286,0,0,0,0,0,0,-0.0347,-0.0338,-0.0358,-0.0358,-0.0353,-0.0348,-0.0348,-0.0353,-0.0335,-0.0334,-0.035,-0.0349,-0.0325,-0.0323,-0.0321,-0.0298,-0.0312,-0.0311,-0.0311,-0.0286,-0.0286,-0.0286,0,0,0,0,0,0,-0.0346,-0.0349,-0.0359,-0.035,-0.0351,-0.0349,-0.0354,-0.0353,-0.0354,-0.0339,-0.0337,-0.0354,-0.0325,-0.0322,-0.0313,-0.0297,-0.0311,-0.031,-0.0286,-0.0286,-0.0286,-0.0258,0,0,0,0,0,0,-0.0345,-0.0348,-0.0356,-0.0351,-0.0352,-0.0362,-0.0354,-0.0353,-0.0358,-0.0357,-0.0342,-0.0339,-0.0325,-0.0315,-0.0312,-0.0296,-0.0309,-0.0286,-0.0286,-0.0286,-0.0259,-0.0257,-0.0256,0,0,0,0,0,-0.0344,-0.0355,-0.0357,-0.036,-0.0363,-0.0362,-0.0361,-0.0357,-0.0358,-0.0359,-0.0346,-0.034,-0.0313,-0.0314,-0.031,-0.0294,-0.0286,-0.0286,-0.0286,-0.026,-0.0258,-0.0256,0,0,0,0,0,0,-0.0349,-0.0355,-0.0357,-0.037,-0.037,-0.0362,-0.0365,-0.0364,-0.0354,-0.0354,-0.0339,-0.0335,-0.0323,-0.0318,-0.0319,-0.0289,-0.0299,-0.0299,-0.028,-0.0278,-0.0276,-0.0264,-0.0308,0,0,0,0,0,-0.0355,-0.0364,-0.0365,-0.0376,-0.0376,-0.0372,-0.0373,-0.0371,-0.0363,-0.036,-0.0349,-0.0336,-0.0319,-0.0307,-0.0299,-0.028,-0.0262,-0.0269,-0.0267,-0.0266,-0.0255,-0.0206,-0.0198,-0.0286,-0.0286,-0.0286,0,0,-0.0363,-0.0366,-0.0373,-0.0378,-0.0376,-0.0372,-0.0372,-0.0376,-0.0365,-0.0358,-0.0342,-0.0335,-0.0317,-0.0294,-0.0287,-0.0285,-0.0236,-0.0266,-0.0264,-0.0254,-0.0205,-0.0196,-0.0188,-0.0286,-0.0286,-0.0286,0,0,-0.0374,-0.0383,-0.0389,-0.0386,-0.0388,-0.0381,-0.0385,-0.0379,-0.0369,-0.0358,-0.0346,-0.0322,-0.0313,-0.0277,-0.0262,-0.0246,-0.0236,-0.0258,-0.0225,-0.0178,-0.017,-0.0162,-0.0144,-0.0135,-0.0247,-0.0247,-0.0247,0,-0.0384,-0.039,-0.0391,-0.0389,-0.0386,-0.0385,-0.0382,-0.0369,-0.036,-0.0341,-0.0354,-0.0308,-0.0294,-0.0239,-0.0233,-0.0237,-0.0226,-0.0231,-0.0173,-0.0165,-0.0157,-0.0141,-0.0131,-0.0246,-0.0246,-0.0246,-0.0246,0,-0.0391,-0.0396,-0.0398,-0.0393,-0.0387,-0.0389,-0.037,-0.0359,-0.0352,-0.0333,-0.0296,-0.0271,-0.0239,-0.0232,-0.0225,-0.0165,-0.0182,-0.0182,-0.0172,-0.0146,-0.0132,-0.0122,-0.0244,-0.0245,-0.0245,-0.0245,0,0,-0.0418,-0.0406,-0.0409,-0.0405,-0.039,-0.0387,-0.0358,-0.0329,-0.0308,-0.0286,-0.025,-0.0205,-0.0194,-0.0176,-0.0161,-0.0113,-0.0055,-0.0126,-0.0124,-0.0098,0.0026,-0.0,0.0007,-0.0046,-0.0044,-0.0042,0.0011,0,-0.0426,-0.0428,-0.0411,-0.0406,-0.0405,-0.0379,-0.0353,-0.0321,-0.0294,-0.026,-0.0209,-0.0183,-0.0172,-0.0162,-0.0106,-0.0078,-0.0026,-0.0071,-0.0011,-0.001,-0.0027,0.002,-0.0036,0.0018,0.002,0.0022,0.0023,0,-0.044,-0.0439,-0.044,-0.0413,-0.0408,-0.0402,-0.0359,-0.0334,-0.027,-0.0247,-0.0192,-0.0167,-0.0095,-0.01,0.0002,-0.0033,0.0003,0.0032,0.0035,0.0012,-0.0017,-0.0011,0.0041,0.0039,0.0038,0.0037,0.0036,0,-0.047,-0.0456,-0.0461,-0.0455,-0.0425,-0.0414,-0.0394,-0.0337,-0.0316,-0.0245,-0.0231,-0.0137,-0.0115,-0.0035,0.0019,0.0012,0.0117,0.0116,0.0133,0.013,0.0125,0.0116,0.0205,0.0205,0.0204,0.0204,0.0204,0,-0.0486,-0.049,-0.0483,-0.0488,-0.0488,-0.0449,-0.0435,-0.0394,-0.0345,-0.0326,-0.0239,-0.0213,-0.0098,-0.0033,0.003,0.0105,0.013,0.0154,0.0156,0.013,0.0122,0.0131,0.0122,0.0206,0.0206,0.0205,0.0205,0,-0.0518,-0.0514,-0.0524,-0.0509,-0.0509,-0.0513,-0.0489,-0.0474,-0.0419,-0.0395,-0.0379,-0.0271,-0.0178,-0.007,0.0052,0.01,0.0183,0.0203,0.0153,0.0148,0.0162,0.0153,0.0243,0.0243,0.0243,0.0243,0.0243,0,-0.0529,-0.0543,-0.056,-0.0578,-0.058,-0.0581,-0.0583,-0.0529,-0.0515,-0.044,-0.0435,-0.0332,-0.0256,-0.0097,0.0021,0.0163,0.0177,0.0216,0.0219,0.018,0.0173,0.0164,0.0156,0.0243,0.0243,0.0243,0.0242,0,-0.0553,-0.0573,-0.0586,-0.0634,-0.0656,-0.066,-0.0658,-0.0651,-0.059,-0.0555,-0.0478,-0.0371,-0.0261,-0.0112,-0.0,0.0097,0.0194,0.0215,0.0216,0.022,0.018,0.0171,0.0163,0.0242,0.0242,0.0242,0.0242,0,-0.0578,-0.0605,-0.0642,-0.0676,-0.071,-0.0721,-0.0708,-0.068,-0.0652,-0.0565,-0.0551,-0.0406,-0.0318,-0.0148,-0.0051,0.0054,0.0084,0.011,0.0117,0.0119,0.0069,-0.0001,0.0024,0,0,0,0,0,-0.0597,-0.0634,-0.0675,-0.0713,-0.0747,-0.0763,-0.075,-0.0725,-0.068,-0.0639,-0.0587,-0.0482,-0.0299,-0.0207,-0.0106,-0.0055,0.0097,0.0066,0.0129,0.0239,0.024,0.02,0,0,0,0,0,0,-0.0613,-0.0663,-0.0683,-0.0737,-0.0769,-0.0798,-0.0788,-0.0753,-0.071,-0.0654,-0.055,-0.0488,-0.0302,-0.0374,-0.0119,-0.0084,-0.0035,0.0157,0.0159,0.0239,0.0239,0.024,0.02,0,0,0,0,0]}]]